Ludington, MI

2:04 AM EST on February 14, 2016 (GMT -0500)
Mason County

Weather History for KLDM - December, 2011

Change the Weather History Date:

Saturday, December 24, 2011

  Actual Average Record
Temperature  
Mean Temperature 34 °F -  
Max Temperature 35 °F - - ()
Min Temperature 32 °F - - ()
Degree Days  
Heating Degree Days 32    
Moisture  
Dew Point 27 °F    
Average Humidity 76    
Maximum Humidity 87    
Minimum Humidity 60    
Precipitation  
Precipitation 0.02 in - - ()
Sea Level Pressure  
Sea Level Pressure 30.17 in    
Wind  
Wind Speed 10 mph (SW)    
Max Wind Speed 22 mph    
Max Gust Speed 31 mph    
Visibility 10 miles    
Events Snow    
T = Trace of Precipitation, MM = Missing Value Source: NWS Daily Summary

Daily Weather History Graph

Daily Weather History Graph

Search for Another Location

Airport or City:

Trip Planner

Search our weather history database for the weather conditions in past years. The results will help you decide how hot, cold, wet, or windy it might be!

Date:

Astronomy

Dec. 24, 2011 Rise Set
Actual Time 8:18 AM EST 5:12 PM EST
Civil Twilight 7:45 AM EST 5:45 PM EST
Nautical Twilight 7:08 AM EST 6:21 PM EST
Astronomical Twilight 6:33 AM EST 6:56 PM EST
Moon 8:05 AM EST (12/24) 5:24 PM EST (12/24)
Length of Visible Light 9h 59m
Length of Day
8h 53m
Waning Crescent, 0% of the Moon is Illuminated
Dec 24
Waning Crescent
Dec 24
New
Jan 1
First Quarter
Jan 9
Full
Jan 16
Last Quarter

Hourly Weather History & Observations

Time (EST) Temp. Windchill Dew Point Humidity Pressure Visibility Wind Dir Wind Speed Gust Speed Precip Events Conditions
12:15 AM 32.0 °F 24.8 °F 24.8 °F 75% 30.17 in 10.0 mi West 8.1 mph - N/A   Overcast
12:35 AM 32.0 °F 26.4 °F 24.8 °F 75% 30.17 in 10.0 mi West 5.8 mph - N/A Snow Light Snow
12:54 AM 32.0 °F 26.4 °F 24.8 °F 75% 30.17 in 10.0 mi West 5.8 mph - N/A   Overcast
1:15 AM 32.0 °F 25.6 °F 24.8 °F 75% 30.18 in 10.0 mi West 6.9 mph - N/A   Overcast
1:34 AM 32.0 °F 25.6 °F 24.8 °F 75% 30.18 in 10.0 mi West 6.9 mph - N/A Snow Light Snow
1:55 AM 32.0 °F 27.5 °F 23.0 °F 69% 30.18 in 10.0 mi West 4.6 mph - N/A   Overcast
2:15 AM 32.0 °F 25.6 °F 24.8 °F 75% 30.18 in 10.0 mi West 6.9 mph - N/A   Overcast
2:35 AM 32.0 °F 27.5 °F 23.0 °F 69% 30.19 in 10.0 mi West 4.6 mph - N/A   Overcast
3:55 AM 32.0 °F 24.8 °F 24.8 °F 75% 30.22 in 10.0 mi WSW 8.1 mph - N/A   Overcast
4:15 AM 32.0 °F - 26.6 °F 80% 30.21 in 10.0 mi Calm Calm - N/A   Overcast
4:35 AM 32.0 °F 24.8 °F 26.6 °F 80% 30.21 in 10.0 mi WSW 8.1 mph - N/A   Overcast
4:55 AM 33.8 °F 29.6 °F 24.8 °F 70% 30.22 in 10.0 mi West 4.6 mph - N/A   Overcast
5:35 AM 33.8 °F 28.6 °F 23.0 °F 65% 30.23 in 10.0 mi West 5.8 mph - N/A   Overcast
5:55 AM 33.8 °F 28.6 °F 21.2 °F 60% 30.23 in 10.0 mi West 5.8 mph - N/A   Overcast
6:14 AM 33.8 °F 28.6 °F 21.2 °F 60% 30.23 in 10.0 mi West 5.8 mph - N/A   Overcast
6:35 AM 33.8 °F 29.6 °F 23.0 °F 65% 30.23 in 10.0 mi West 4.6 mph - N/A   Overcast
6:55 AM 33.8 °F 28.6 °F 23.0 °F 65% 30.24 in 10.0 mi West 5.8 mph - N/A   Overcast
7:14 AM 33.8 °F 30.8 °F 23.0 °F 65% 30.24 in 10.0 mi WSW 3.5 mph - N/A   Overcast
7:35 AM 33.8 °F 28.6 °F 24.8 °F 70% 30.24 in 10.0 mi WSW 5.8 mph - N/A   Overcast
7:55 AM 33.8 °F 29.6 °F 26.6 °F 75% 30.24 in 10.0 mi SW 4.6 mph - N/A   Overcast
8:14 AM 33.8 °F 27.7 °F 26.6 °F 75% 30.24 in 10.0 mi SSW 6.9 mph - N/A   Overcast
8:35 AM 33.8 °F 27.7 °F 26.6 °F 75% 30.24 in 10.0 mi SW 6.9 mph - N/A   Overcast
8:54 AM 33.8 °F 30.8 °F 26.6 °F 75% 30.24 in 10.0 mi SSE 3.5 mph - N/A   Overcast
9:15 AM 32.0 °F 26.4 °F 23.0 °F 69% 30.26 in 10.0 mi South 5.8 mph - N/A   Overcast
9:35 AM 33.8 °F 28.6 °F 26.6 °F 75% 30.26 in 10.0 mi South 5.8 mph - N/A   Overcast
9:54 AM 33.8 °F 28.6 °F 26.6 °F 75% 30.27 in 10.0 mi South 5.8 mph - 0.01 in   Overcast
9:59 AM 33.8 °F 27.7 °F 26.6 °F 75% 30.27 in 10.0 mi South 6.9 mph - 0.01 in   Overcast
10:15 AM 33.8 °F 27.0 °F 26.6 °F 75% 30.27 in 10.0 mi SW 8.1 mph - N/A   Overcast
10:35 AM 33.8 °F 24.8 °F 26.6 °F 75% 30.26 in 10.0 mi SW 12.7 mph 16.1 mph N/A   Overcast
10:54 AM 33.8 °F 26.4 °F 26.6 °F 75% 30.26 in 10.0 mi SSW 9.2 mph 18.4 mph N/A   Mostly Cloudy
11:15 AM 33.8 °F 25.8 °F 26.6 °F 75% 30.25 in 10.0 mi SSW 10.4 mph - N/A   Mostly Cloudy
11:35 AM 35.6 °F 27.1 °F 28.4 °F 75% 30.24 in 10.0 mi SSW 12.7 mph 23.0 mph N/A   Overcast
11:54 AM 35.6 °F 26.2 °F 28.4 °F 75% 30.23 in 10.0 mi SSW 15.0 mph 20.7 mph N/A   Overcast
12:15 PM 35.6 °F 25.9 °F 28.4 °F 75% 30.21 in 10.0 mi SSW 16.1 mph 20.7 mph N/A   Mostly Cloudy
12:55 PM 35.6 °F 25.2 °F 30.2 °F 81% 30.18 in 10.0 mi SW 18.4 mph 25.3 mph N/A   Overcast
1:15 PM 35.6 °F 24.8 °F 30.2 °F 81% 30.18 in 10.0 mi SW 19.6 mph 24.2 mph N/A   Overcast
1:35 PM 35.6 °F 26.6 °F 30.2 °F 81% 30.17 in 10.0 mi SSW 13.8 mph 25.3 mph 0.01 in   Overcast
1:55 PM 35.6 °F 24.8 °F 30.2 °F 81% 30.16 in 10.0 mi SSW 19.6 mph 25.3 mph 0.01 in   Mostly Cloudy
1:59 PM 35.6 °F 26.2 °F 28.4 °F 75% 30.17 in 10.0 mi SW 15.0 mph 24.2 mph 0.01 in   Mostly Cloudy
2:15 PM 35.6 °F 25.5 °F 30.2 °F 81% 30.16 in 10.0 mi SW 17.3 mph 23.0 mph N/A   Mostly Cloudy
2:34 PM 35.6 °F 25.2 °F 30.2 °F 81% 30.15 in 10.0 mi SW 18.4 mph 24.2 mph N/A   Mostly Cloudy
2:55 PM 35.6 °F 25.9 °F 30.2 °F 81% 30.14 in 10.0 mi SSW 16.1 mph 24.2 mph N/A   Mostly Cloudy
3:14 PM 35.6 °F 26.6 °F 30.2 °F 81% 30.14 in 10.0 mi SSW 13.8 mph 24.2 mph N/A   Mostly Cloudy
3:35 PM 35.6 °F 26.2 °F 30.2 °F 81% 30.13 in 10.0 mi SSW 15.0 mph 26.5 mph N/A   Overcast
4:14 PM 35.6 °F 25.9 °F 30.2 °F 81% 30.11 in 10.0 mi SSW 16.1 mph 28.8 mph N/A   Scattered Clouds
4:35 PM 35.6 °F 24.5 °F 30.2 °F 81% 30.10 in 10.0 mi SSW 20.7 mph 26.5 mph N/A   Scattered Clouds
4:55 PM 33.8 °F 23.9 °F 30.2 °F 87% 30.10 in 10.0 mi SSW 15.0 mph 23.0 mph N/A   Scattered Clouds
5:14 PM 35.6 °F 26.2 °F 30.2 °F 81% 30.10 in 10.0 mi SSW 15.0 mph 26.5 mph N/A   Mostly Cloudy
5:35 PM 35.6 °F 26.6 °F 30.2 °F 81% 30.09 in 10.0 mi SSW 13.8 mph 19.6 mph N/A   Scattered Clouds
5:55 PM 35.6 °F 25.9 °F 30.2 °F 81% 30.08 in 10.0 mi SSW 16.1 mph 26.5 mph N/A   Scattered Clouds
6:14 PM 35.6 °F 24.8 °F 30.2 °F 81% 30.08 in 10.0 mi SSW 19.6 mph 26.5 mph N/A   Scattered Clouds
6:35 PM 35.6 °F 25.2 °F 30.2 °F 81% 30.08 in 10.0 mi SW 18.4 mph 27.6 mph N/A   Scattered Clouds
6:55 PM 35.6 °F 25.5 °F 28.4 °F 75% 30.08 in 10.0 mi SW 17.3 mph 31.1 mph N/A   Scattered Clouds
7:14 PM 35.6 °F 24.5 °F 28.4 °F 75% 30.08 in 10.0 mi SW 20.7 mph 26.5 mph N/A   Mostly Cloudy
7:35 PM 35.6 °F 24.8 °F 30.2 °F 81% 30.08 in 10.0 mi SW 19.6 mph 25.3 mph N/A   Mostly Cloudy
7:55 PM 35.6 °F 24.2 °F 30.2 °F 81% 30.08 in 10.0 mi WSW 21.9 mph 29.9 mph N/A   Scattered Clouds
8:14 PM 35.6 °F 24.8 °F 28.4 °F 75% 30.07 in 10.0 mi WSW 19.6 mph 27.6 mph N/A   Scattered Clouds
8:35 PM 35.6 °F 24.2 °F 30.2 °F 81% 30.07 in 10.0 mi WSW 21.9 mph 28.8 mph N/A   Scattered Clouds
8:55 PM 35.6 °F 25.2 °F 30.2 °F 81% 30.06 in 10.0 mi WSW 18.4 mph 26.5 mph N/A   Mostly Cloudy
9:14 PM 35.6 °F 24.5 °F 30.2 °F 81% 30.06 in 10.0 mi WSW 20.7 mph 26.5 mph N/A   Scattered Clouds
9:35 PM 35.6 °F 26.6 °F 28.4 °F 75% 30.05 in 10.0 mi WSW 13.8 mph 25.3 mph N/A   Scattered Clouds
9:54 PM 35.6 °F 25.2 °F 30.2 °F 81% 30.05 in 10.0 mi WSW 18.4 mph 25.3 mph N/A   Clear
10:15 PM 35.6 °F 26.6 °F 30.2 °F 81% 30.04 in 10.0 mi WSW 13.8 mph 23.0 mph N/A   Clear
10:35 PM 35.6 °F 25.9 °F 30.2 °F 81% 30.04 in 10.0 mi WSW 16.1 mph 21.9 mph N/A   Clear
10:54 PM 35.6 °F 26.6 °F 30.2 °F 81% 30.03 in 10.0 mi WSW 13.8 mph 19.6 mph N/A   Clear
11:15 PM 35.6 °F 26.6 °F 30.2 °F 81% 30.03 in 10.0 mi WSW 13.8 mph 20.7 mph N/A   Mostly Cloudy
11:35 PM 35.6 °F 27.5 °F 30.2 °F 81% 30.02 in 10.0 mi WSW 11.5 mph 16.1 mph N/A   Overcast
11:54 PM 37.4 °F 29.8 °F 32.0 °F 81% 30.02 in 10.0 mi WSW 11.5 mph 17.3 mph N/A   Overcast